EW9755 Weather Reports


Display with metric or nautical units.
time (UTC)temp
F
wind
direction
speed
MPH
gust
MPH
rain 1hr
in
rain 24hr
in
rain mn
in
humidity
%
barometer
mb
20210920025736 83 156 9.0 12.0 0.00 0.00 0.14 77 1012.3
20210920025056 82 154 8.0 12.0 0.00 0.00 0.14 78 1012.3
20210920023736 82 157 9.0 12.0 0.00 0.00 0.14 77 1011.9
20210920023055 82 153 8.0 10.0 0.00 0.00 0.14 78 1011.9
20210920022416 82 157 7.0 11.0 0.00 0.00 0.14 78 1011.9
20210920020205 82 154 8.0 7.0 0.00 0.00 0.14 77 1011.6
20210920015101 83 149 9.0 9.0 0.00 0.00 0.14 77 1011.2
20210920014210 83 150 9.0 9.0 0.00 0.00 0.14 77 1011.2
20210920013319 82 154 10.0 13.0 0.00 0.00 0.14 76 1010.9
20210920012639 82 153 11.0 14.0 0.00 0.00 0.14 77 1010.9
20210920004859 82 153 12.0 15.0 0.00 0.00 0.14 79 1010.6
20210920002859 82 153 11.0 14.0 0.00 0.00 0.14 78 1010.6
20210920002219 82 152 9.0 15.0 0.00 0.00 0.14 78 1010.6
20210919235324 83 149 12.0 14.0 0.00 0.00 0.14 76 1010.6
20210919234644 83 145 11.0 14.0 0.00 0.00 0.14 76 1010.6
20210919233324 83 144 12.0 16.0 0.00 0.00 0.14 75 1010.6
20210919232644 83 149 11.0 16.0 0.00 0.00 0.14 75 1010.6
20210919232004 83 145 13.0 13.0 0.00 0.00 0.14 75 1010.6
20210919231110 83 150 13.0 17.0 0.00 0.00 0.14 76 1010.9
20210919230430 83 144 12.0 16.0 0.00 0.00 0.14 76 1010.9
20210919225750 84 147 13.0 16.0 0.00 0.00 0.14 73 1010.9
20210919225110 84 158 10.0 13.0 0.00 0.00 0.14 74 1010.9
20210919223750 83 156 8.0 11.0 0.00 0.00 0.14 75 1010.9
20210919222859 83 153 8.0 11.0 0.00 0.00 0.14 74 1010.9
20210919222219 83 153 9.0 11.0 0.00 0.00 0.14 77 1011.2
20210919221539 82 150 10.0 9.0 0.00 0.00 0.14 79 1011.2
20210919220647 82 167 8.0 11.0 0.00 0.00 0.14 81 1011.2
20210919220007 82 153 6.0 10.0 0.00 0.00 0.14 83 1011.2
20210919215327 82 159 6.0 9.0 0.00 0.00 0.14 84 1011.2
20210919214647 81 190 6.0 9.0 0.00 0.00 0.14 85 1011.2
20210919213116 82 145 4.0 10.0 0.00 0.00 0.14 79 1010.9
20210919212436 81 166 7.0 9.0 0.00 0.00 0.14 79 1010.9
20210919211756 81 187 8.0 6.0 0.00 0.00 0.14 80 1011.2
20210919210010 79 273 3.0 10.0 0.00 0.00 0.10 75 1011.6
20210919203330 85 83 5.0 10.0 0.00 0.00 0.00 74 1011.6
20210919202650 84 136 5.0 6.0 0.00 0.00 0.00 74 1011.6
20210919201547 84 125 9.0 13.0 0.00 0.00 0.00 73 1011.9
20210919200012 84 131 8.0 13.0 0.00 0.00 0.00 74 1011.9
20210919195332 84 139 10.0 13.0 0.00 0.00 0.00 75 1011.9
20210919194652 84 129 10.0 13.0 0.00 0.00 0.00 74 1011.9
20210919193332 84 134 10.0 8.0 0.00 0.00 0.00 71 1012.3
20210919192228 83 184 6.0 11.0 0.00 0.00 0.00 74 1012.3
20210919191548 82 162 9.0 9.0 0.00 0.00 0.00 78 1012.3
20210919185337 83 171 10.0 6.0 0.00 0.00 0.00 80 1012.9
20210919184443 83 145 8.0 14.0 0.00 0.00 0.00 79 1012.9
20210919183123 84 158 10.0 15.0 0.00 0.00 0.00 78 1012.9
20210919181123 84 117 7.0 10.0 0.00 0.00 0.00 75 1013.3
20210919180443 84 118 8.0 10.0 0.00 0.00 0.00 74 1013.3
20210919174020 84 100 7.0 11.0 0.00 0.00 0.00 73 1013.6
20210919173340 84 111 9.0 7.0 0.00 0.00 0.00 75 1013.6
20210919171129 83 119 7.0 4.0 0.00 0.00 0.00 76 1014.0
20210919170238 84 115 5.0 5.0 0.00 0.00 0.00 75 1014.0
20210919165344 84 123 7.0 9.0 0.00 0.00 0.00 75 1014.0
20210919164704 84 131 6.0 7.0 0.00 0.00 0.00 74 1014.3
20210919164024 84 103 4.0 6.0 0.00 0.00 0.00 75 1014.3
20210919163344 84 90 3.0 5.0 0.00 0.00 0.00 75 1014.3
20210919162704 84 291 3.0 6.0 0.00 0.00 0.00 67 1014.6
20210919161344 85 334 3.0 6.0 0.00 0.00 0.00 71 1014.6
20210919152238 83 306 6.0 8.0 0.00 0.00 0.00 78 1014.6
20210919150706 82 302 5.0 10.0 0.00 0.00 0.00 78 1014.6
20210919150026 82 327 6.0 8.0 0.00 0.00 0.00 78 1014.6
20210919144028 82 317 6.0 9.0 0.00 0.00 0.00 82 1014.6
20210919143348 82 306 8.0 9.0 0.00 0.00 0.00 82 1014.6
20210919142028 80 291 4.0 3.0 0.00 0.00 0.00 86 1014.6
20210919141134 80 317 2.0 3.0 0.00 0.00 0.00 88 1014.6
20210919140453 79 314 2.0 3.0 0.00 0.00 0.00 89 1014.6
20210919134453 79 355 2.0 2.0 0.00 0.00 0.00 88 1014.3
20210919132239 78 9 2.0 2.0 0.00 0.00 0.00 89 1014.0
20210919125816 76 56 2.0 2.0 0.00 0.00 0.00 91 1013.6
20210919124922 76 37 4.0 5.0 0.00 0.00 0.00 91 1013.6
20210919124241 76 47 3.0 5.0 0.00 0.00 0.00 92 1013.6
20210919123602 76 56 4.0 4.0 0.00 0.00 0.00 91 1013.6
20210919121349 76 352 4.0 4.0 0.00 0.00 0.00 91 1013.6
20210919120459 76 6 4.0 4.0 0.00 0.00 0.00 91 1013.6
20210919115819 76 9 3.0 2.0 0.00 0.00 0.00 91 1013.6
20210919113144 76 345 3.0 3.0 0.00 0.00 0.00 91 1013.3
20210919112037 76 318 4.0 4.0 0.00 0.00 0.00 91 1013.3
20210919111142 76 319 5.0 5.0 0.00 0.00 0.00 92 1013.3
20210919110501 76 336 4.0 4.0 0.00 0.00 0.00 92 1013.3
20210919101400 78 314 4.0 5.0 0.00 0.00 0.00 91 1012.9
20210919100040 78 329 4.0 5.0 0.00 0.00 0.00 90 1012.9
20210919093826 79 294 6.0 6.0 0.00 0.00 0.00 89 1012.9
20210919091826 80 264 4.0 4.0 0.00 0.00 0.00 88 1013.3
20210919090252 80 261 3.0 4.0 0.00 0.00 0.00 88 1013.3
20210919085611 80 269 4.0 4.0 0.00 0.00 0.00 88 1013.3
20210919084932 79 259 4.0 4.0 0.00 0.00 0.00 87 1013.3
20210919084252 79 267 4.0 4.0 0.00 0.00 0.00 88 1013.3
20210919082932 80 247 3.0 4.0 0.00 0.00 0.00 88 1013.3
20210919082252 80 255 3.0 4.0 0.00 0.00 0.00 88 1013.3
20210919074258 80 217 3.0 4.0 0.00 0.00 0.00 86 1013.6
20210919073618 80 217 4.0 4.0 0.00 0.00 0.00 86 1013.3
20210919072727 80 206 4.0 4.0 0.00 0.00 0.00 87 1013.6
20210919071835 80 222 3.0 4.0 0.00 0.00 0.00 88 1013.6
20210919071155 79 227 3.0 2.0 0.00 0.00 0.00 88 1013.6
20210919070304 80 219 3.0 2.0 0.00 0.00 0.00 87 1013.6
20210919065158 80 214 5.0 6.0 0.00 0.00 0.00 87 1013.6
20210919063838 80 218 4.0 4.0 0.00 0.00 0.00 88 1013.6
20210919062518 80 201 4.0 5.0 0.00 0.00 0.00 86 1013.6
20210919061838 80 200 3.0 4.0 0.00 0.00 0.00 85 1014.0
20210919061158 80 202 3.0 4.0 0.00 0.00 0.00 85 1014.0
20210919060518 80 208 4.0 4.0 0.00 0.00 0.00 84 1014.0
20210919054523 80 225 2.0 3.0 0.00 0.00 0.00 84 1014.0
20210919053632 80 185 2.0 2.0 0.00 0.00 0.00 84 1014.0
20210919052952 80 179 1.0 1.0 0.00 0.00 0.00 84 1014.3
20210919052100 80 169 1.0 1.0 0.00 0.00 0.00 84 1014.3
20210919045846 80 258 1.0 2.0 0.00 0.00 0.00 82 1014.3
20210919042314 82 139 3.0 4.0 0.00 0.00 0.02 76 1014.3
20210919041423 82 124 4.0 3.0 0.00 0.00 0.02 76 1014.3
20210919040532 82 139 6.0 8.0 0.00 0.00 0.02 74 1014.3
20210919035852 81 137 6.0 8.0 0.00 0.00 0.02 74 1014.3
20210919035212 81 124 5.0 6.0 0.00 0.00 0.02 75 1014.3
20210919034532 81 129 3.0 4.0 0.00 0.00 0.02 76 1014.3
20210919033212 80 106 1.0 2.0 0.00 0.00 0.02 79 1014.3